Hourly Data Report for May 17, 2003

TORONTO CITY
ONTARIO

43°40'00.000" N
79°24'00.000" W
112.50 m
6158355
71508
XTO

Download Data

Hourly Data (May 2003)
Hourly Data Report for May 17, 2003
TIME
LST
Temp Definition
°C
Dew Point Definition
°C
Rel Hum Definition
%
Precip. Amount Definition
mm

Wind Dir Definition
10's deg

Wind Spd Definition
km/h
Visibility Definition
km
Stn Press Definition
kPa
Hmdx Definition


Wind Chill Definition


Weather Definition


00:00 11.2 10.1 93   LegendMM LegendMM LegendMM 101.11     LegendNANA
01:00 10.8 9.9 94   LegendMM LegendMM LegendMM 101.08     LegendNANA
02:00 10.8 9.6 92   LegendMM LegendMM LegendMM 101.05     LegendNANA
03:00 9.9 8.7 92   LegendMM LegendMM LegendMM 101.01     LegendNANA
04:00 9.6 8.7 94   LegendMM LegendMM LegendMM 101.04     LegendNANA
05:00 9.2 8.5 95   LegendMM LegendMM LegendMM 101.14     LegendNANA
06:00 9.4 8.3 93   LegendMM LegendMM LegendMM 101.17     LegendNANA
07:00 9.7 8.3 91   LegendMM LegendMM LegendMM 101.17     LegendNANA
08:00 10.2 8.3 88   LegendMM LegendMM LegendMM 101.21     LegendNANA
09:00 10.9 8.1 83   LegendMM LegendMM LegendMM 101.22     LegendNANA
10:00 12.8 9.3 79   LegendMM LegendMM LegendMM 101.20     LegendNANA
11:00 13.3 8.6 73   LegendMM LegendMM LegendMM 101.19     LegendNANA
12:00 13.5 8.8 73   LegendMM LegendMM LegendMM 101.15     LegendNANA
13:00 13.8 8.4 70   LegendMM LegendMM LegendMM 101.14     LegendNANA
14:00 13.4 8.3 71   LegendMM LegendMM LegendMM 101.13     LegendNANA
15:00 14.4 7.7 64   LegendMM LegendMM LegendMM 101.07     LegendNANA
16:00 14.3 7.6 64   LegendMM LegendMM LegendMM 101.05     LegendNANA
17:00 14.1 6.5 60   LegendMM LegendMM LegendMM 101.05     LegendNANA
18:00 14.3 7.1 62   LegendMM LegendMM LegendMM 101.03     LegendNANA
19:00 14.5 7.6 63   LegendMM LegendMM LegendMM 101.03     LegendNANA
20:00 14.1 7.2 63   LegendMM LegendMM LegendMM 101.03     LegendNANA
21:00 13.1 6.2 63   LegendMM LegendMM LegendMM 101.03     LegendNANA
22:00 11.7 6.0 68   LegendMM LegendMM LegendMM 101.06     LegendNANA
23:00 11.6 5.9 68   LegendMM LegendMM LegendMM 101.04     LegendNANA

Notes on Data Quality.

Legend

  • E = Estimated
  • M = Missing
  • NA = Not Available*
  • [empty] = Indicates an unobserved value
Date modified: